sat.trackr.live / text

‹ back to catalog

STARLINK-37017

NORAD 68108 · 2026-044H

PAYLOAD ACTIVE UNKNOWN

§ Identity

Operator
Country
US
Launch date
2026-03-08
Launch site
AFWTR
Launch vehicle
Mass (kg)
RCS (m²)

Purposes: comms

External: N2YO · Heavens-Above · Gunter

§ Orbital elements

Epoch: 2026-09-19T16:55:22.876896Z

Period
93.91 min
Inclination
97.2852°
Eccentricity
0.0001566
Mean motion
15.33446003 rev/d
Perigee alt
464.5 km
Apogee alt
466.6 km
Semi-major
6,843.7 km
B*
2.8898e-4
RAAN
221.6325°
Arg perigee
95.5600°
Mean anomaly
264.5822°
Rev number
3,131

§ Raw data

STARLINK-370171 68108U 26044H   26262.70512589  .00009266  00000+0  28898-3 0  99942 68108  97.2852 221.6325 0001566  95.5600 264.5822 15.33446003 31318

JSON: /api/v1/satellites/68108 · /tle

For live sub-satellite position, see the globe view (requires WebGL).

§ Visibility from observer

Set your observer location to see the next 7 days of passes ≥ 10°. The values pass through the URL so the page stays shareable.

No JS? Fill the form by hand. The geolocation button needs JavaScript.